Location: Veytaux
(46.4185°N, 6.9320°E)
Time: 08:58:05
(UTC+00:00)

Cosmos 1455 - Pass Details

Date: 27 May 2022
Orbit: 492 x 514 km, 82.5° (Epoch: 01 July)

Event Time Altitude Azimuth Distance (km) Brightness Sun altitude
Rises 02:04:07 0° 340° (NNW) 2,585 6.2 -13.8°
Reaches altitude 10° 02:06:25 10° 329° (NNW) 1,697 5.1 -13.6°
Maximum altitude 02:09:37 28° 269° (W) 943 3.2 -13.2°
Enters shadow 02:11:03 22° 231° (SW) 1,128 3.3 -13.1°
